Location: Unspecified
(0.0000°N, 0.0000°E)
Time: 18:48:06
(UTC+00:00)

Vanguard 2 - Pass Details

Date: 27 November 2019
Orbit: 553 x 2938 km, 32.9° (Epoch: 06 December)

Event Time Altitude Azimuth Distance (km) Brightness Sun altitude
Rises 01:45:17 0° 233° (SW) 5,970 - -54.3°
Reaches altitude 10° 01:48:49 10° 233° (SW) 5,192 - -53.6°
Maximum altitude 02:05:29 87° 144° (SE) 2,935 - -50.3°
Exits shadow 02:08:08 73° 64° (ENE) 3,026 10.2 -49.7°
Drops below altitude 10° 02:22:53 10° 55° (NE) 5,387 12.0 -46.6°
Sets 02:26:38 0° 55° (NE) 6,194 12.4 -45.8°
